Wind_Speed
21 22 21 19 20 19 20 20 19 18 18 19 18 18 17 16 16 16 17 17 17 17 16 14 14 14 14 14 14 12 11 11 11 11 11 11 11 11 11 11 10 11 12 12
20 20 19 19 21 21 21 21 20 20 19 19 19 19 18 17 18 18 17 17 18 17 17 16 14 14 14 13 12 12 12 12 12 12 12 11 12 12 12 12 12 12 12 12
19 18 20 20 20 21 21 21 21 21 21 22 22 21 20 19 20 20 19 19 18 18 18 17 16 14 15 14 12 12 12 12 13 13 12 12 12 13 12 12 12 12 13 13
19 19 20 21 20 19 19 18 20 21 22 23 23 23 22 20 20 20 20 20 18 18 18 18 17 16 16 16 14 13 13 13 13 14 14 13 13 13 13 12 12 12 13 13
18 19 20 21 20 19 20 19 19 21 23 24 24 24 21 21 21 21 21 20 19 19 18 18 18 18 17 17 16 15 14 14 14 14 14 14 14 14 14 13 13 13 14 13
19 19 20 19 19 20 20 21 21 22 23 24 21 23 23 21 21 21 21 20 19 19 19 18 18 18 18 18 18 17 17 16 15 15 14 14 14 15 15 14 14 15 15 15
20 20 20 20 20 20 21 21 22 22 23 22 20 22 22 20 20 20 20 20 20 19 20 19 18 19 19 19 18 18 18 17 17 15 15 14 15 15 16 16 16 16 16 16
20 19 20 21 20 20 20 21 21 22 21 20 20 22 20 19 18 18 18 19 19 18 19 18 19 19 19 19 19 18 19 18 18 18 17 16 16 16 17 17 17 16 16 16
20 19 19 20 20 21 21 20 20 22 22 22 21 21 20 19 18 17 17 17 18 18 18 18 18 18 19 19 20 20 19 20 19 20 18 18 17 18 18 18 17 17 17 17
20 20 20 21 22 22 21 20 20 21 22 22 22 21 20 19 17 17 18 17 19 19 19 19 20 20 20 21 21 21 19 18 19 19 19 19 18 19 19 19 18 18 18 18
21 21 20 22 23 22 22 22 22 22 23 23 23 21 21 20 18 17 17 18 18 19 18 19 20 21 21 20 19 20 20 19 18 18 19 20 20 20 20 19 19 18 18 19
23 23 22 22 22 22 23 23 24 24 23 23 23 21 18 19 19 18 18 19 19 19 18 18 19 20 20 20 20 20 20 20 18 18 19 20 20 19 19 19 19 19 18 19
23 24 24 22 23 23 25 24 24 24 25 24 23 22 21 21 20 20 21 20 21 20 18 18 19 19 19 20 21 20 20 19 19 20 20 20 21 20 19 19 19 19 19 19
23 25 25 24 24 25 26 26 25 25 26 25 25 24 23 22 22 22 21 21 21 20 18 17 18 19 19 21 22 21 21 20 20 20 21 21 21 20 19 19 19 19 19 18
25 26 26 26 26 25 25 25 26 27 26 26 25 25 24 24 23 23 23 22 21 20 19 18 18 19 19 19 20 21 22 21 21 22 22 21 21 20 20 20 20 20 20 19
26 27 26 26 26 26 26 25 26 27 27 27 26 25 24 25 24 23 23 23 21 20 19 20 20 19 20 20 20 21 21 21 21 21 21 21 20 19 19 19 18 18 19 19
28 28 27 26 25 26 27 26 27 27 27 28 27 25 24 24 24 24 24 24 23 22 21 21 21 21 21 20 21 21 21 21 20 19 19 19 19 19 19 18 18 18 18 18
28 28 28 27 26 28 25 25 26 27 27 27 26 26 26 25 24 24 24 24 23 22 21 21 21 20 21 21 21 20 20 20 19 19 19 18 18 18 18 18 19 19 19 18
26 26 26 26 27 27 26 26 25 24 25 25 25 26 27 26 26 24 24 23 22 21 21 21 21 20 19 18 18 18 19 19 18 18 18 18 18 18 18 19 19 19 19 19
25 26 26 26 26 26 25 25 25 25 26 25 26 27 26 26 26 24 23 22 22 21 20 19 19 18 18 17 17 17 18 17 17 17 17 17 17 18 18 18 19 19 19 19
24 24 25 25 25 25 24 24 24 26 25 24 24 25 24 24 24 23 23 22 22 21 20 20 19 18 17 17 17 17 17 17 17 17 17 17 17 17 17 17 17 18 19 19
23 23 23 24 25 24 24 24 24 24 24 25 24 25 24 24 23 23 23 23 23 22 21 20 19 18 17 17 17 17 17 17 17 18 18 18 17 18 17 17 16 17 17 18
23 23 23 23 24 23 24 25 25 25 24 25 25 26 27 26 24 23 23 23 23 22 21 19 18 18 17 17 16 17 17 17 17 18 18 18 18 17 17 16 16 17 17 17
22 22 23 24 24 24 23 24 24 25 26 25 25 25 24 24 24 23 23 23 22 22 21 20 20 19 18 17 16 16 16 16 17 17 17 17 17 17 17 16 16 16 16 16
23 23 23 23 24 24 25 25 24 25 25 25 25 25 23 23 23 23 23 23 22 21 21 20 20 20 19 17 16 15 15 16 16 16 17 17 16 16 16 15 15 16 16 17
22 22 22 23 24 25 25 24 24 24 23 24 23 23 22 22 23 23 23 23 22 22 21 21 20 20 19 18 17 17 16 16 17 17 17 17 17 16 16 15 15 16 17 17
Wind_Direction
235 234 234 235 237 239 241 241 243 242 245 251 255 258 255 258 264 272 278 279 277 278 276 276 276 277 281 282 280 278 279 279 275 278 283 281 281 281 282 282 283 282 282 281
238 237 234 235 237 240 242 243 244 242 242 249 253 253 257 263 267 271 275 278 276 273 272 272 274 275 276 277 275 273 277 276 276 276 281 280 277 277 278 277 279 280 279 282
239 234 235 236 235 236 241 246 248 248 247 248 254 253 254 259 262 265 270 274 275 272 271 271 272 275 271 271 273 272 274 274 272 275 280 279 277 276 274 274 277 281 282 281
236 233 236 238 235 238 243 246 247 249 250 246 251 257 256 258 260 260 264 267 268 266 268 269 270 271 272 269 270 272 273 272 270 272 274 276 277 276 274 273 275 279 283 281
237 235 239 239 238 241 244 246 249 251 251 248 250 258 258 258 259 259 260 262 264 264 264 265 268 267 270 268 266 268 269 269 270 271 272 273 276 275 273 271 274 277 278 280
238 235 239 243 242 244 246 248 251 252 251 253 252 256 259 259 259 261 259 261 266 264 260 259 263 265 265 266 267 267 266 266 270 272 271 271 274 274 272 271 273 277 277 275
237 235 238 239 239 238 241 245 249 250 249 253 255 258 261 261 261 260 261 264 265 264 261 258 260 265 263 267 271 269 268 266 268 272 271 270 273 273 272 272 275 278 277 274
242 239 238 238 240 241 239 243 248 251 253 253 253 259 261 259 258 259 258 260 259 265 264 256 256 261 261 265 270 269 270 269 270 272 274 270 273 275 275 275 275 276 275 273
244 239 232 234 236 237 237 244 249 253 255 256 255 258 260 259 257 256 257 256 257 259 261 258 259 261 262 264 265 266 269 269 271 272 271 269 272 273 276 278 276 274 271 271
243 238 229 231 232 233 237 242 245 251 254 258 257 258 258 257 258 259 256 253 255 258 261 263 267 267 272 272 268 267 271 271 273 271 270 269 270 273 274 277 277 273 269 271
241 238 231 230 229 230 232 236 243 250 254 257 259 258 260 258 262 264 259 255 257 259 261 264 265 268 270 270 273 276 277 274 272 271 270 271 271 273 273 273 274 272 269 268
241 239 237 235 233 232 233 237 241 245 250 254 257 259 259 257 261 264 264 261 260 261 262 263 266 268 267 268 272 274 275 272 273 274 275 276 273 271 272 274 273 272 271 271
240 242 241 237 235 236 237 238 242 245 248 251 255 257 257 258 260 264 265 264 259 263 264 264 269 271 270 268 270 273 271 274 276 276 278 278 276 273 272 272 272 272 271 272
243 245 244 241 240 241 242 241 242 245 247 251 254 255 254 257 258 260 262 261 264 264 263 268 271 270 273 271 269 269 271 274 275 275 275 275 275 273 270 270 271 270 271 272
243 245 244 245 244 242 244 244 245 248 251 254 255 254 251 254 257 259 261 263 265 264 264 268 272 273 273 272 269 270 270 273 274 275 275 272 271 270 269 269 269 271 272 272
244 246 248 248 245 245 247 246 248 250 253 255 255 254 254 254 254 259 263 264 265 261 258 264 269 270 269 269 268 270 272 273 272 271 272 271 270 269 269 270 271 272 273 272
248 250 250 250 248 246 248 248 249 250 251 252 253 253 252 255 256 258 262 263 264 261 261 264 269 271 270 269 269 268 271 272 270 269 270 272 271 271 270 269 271 272 273 273
250 251 251 250 248 247 247 248 248 249 250 250 251 250 249 254 258 258 259 261 263 263 264 268 270 271 270 271 268 266 268 269 268 268 268 270 271 271 273 272 273 274 274 274
251 252 253 252 250 249 247 249 250 249 249 250 252 252 251 255 254 258 260 260 262 264 266 266 268 272 272 271 270 270 269 270 267 268 270 269 269 271 273 273 272 273 273 274
250 252 254 254 252 248 247 248 250 250 251 253 254 256 257 255 256 257 258 258 259 261 263 265 268 270 271 272 271 270 271 269 268 268 270 271 272 271 273 274 273 272 273 274
250 252 253 254 253 249 249 249 250 250 254 256 257 259 261 258 256 256 258 260 259 259 260 263 265 268 269 270 269 269 269 266 265 267 268 269 272 273 274 274 272 272 272 273
247 251 251 253 253 252 251 251 252 253 254 256 259 262 261 261 258 255 255 257 259 259 259 261 265 267 266 266 267 268 267 266 265 266 267 269 272 275 275 275 272 272 272 273
248 249 251 252 252 254 254 252 253 255 255 258 261 263 262 259 259 256 253 254 255 258 261 260 262 264 264 265 266 268 268 267 266 266 266 268 271 274 274 275 269 271 274 274
250 251 251 251 252 255 254 253 255 256 257 260 262 265 260 257 255 253 252 253 253 255 258 259 261 261 262 264 264 268 267 266 265 266 267 269 272 273 273 274 272 272 275 276
250 250 251 252 252 253 253 253 254 257 259 261 264 264 258 256 255 255 252 250 252 254 254 256 258 259 261 261 262 263 265 265 265 266 266 265 268 270 270 270 271 274 276 278
252 250 253 252 251 252 251 252 254 256 260 263 265 263 259 257 257 254 253 251 252 253 252 255 257 256 254 257 261 264 266 267 267 267 266 264 265 268 271 271 272 276 278 281
Height
5832 5835 5838 5840 5841 5843 5844 5845 5847 5849 5849 5848 5849 5850 5851 5851 5852 5852 5853 5853 5853 5853 5853 5853 5853 5853 5852 5852 5851 5851 5851 5851 5850 5849 5849 5849 5849 5848 5848 5848 5848 5848 5847 5847
5829 5831 5834 5835 5836 5837 5839 5840 5842 5843 5844 5844 5844 5845 5847 5847 5848 5848 5848 5848 5848 5848 5849 5849 5849 5849 5849 5848 5848 5848 5848 5847 5847 5846 5846 5846 5845 5845 5845 5845 5844 5844 5843 5843
5824 5828 5828 5829 5831 5832 5834 5836 5837 5838 5839 5839 5840 5841 5842 5843 5843 5843 5843 5844 5844 5844 5844 5844 5844 5844 5844 5844 5844 5844 5844 5843 5843 5843 5842 5842 5842 5841 5841 5841 5841 5840 5840 5839
5819 5822 5823 5824 5826 5827 5829 5831 5832 5833 5833 5834 5835 5835 5837 5837 5838 5838 5838 5839 5839 5839 5839 5839 5840 5840 5840 5840 5840 5840 5840 5839 5839 5839 5838 5838 5838 5838 5838 5837 5837 5837 5836 5835
5815 5817 5818 5819 5821 5822 5824 5826 5826 5827 5827 5829 5830 5830 5832 5832 5832 5833 5833 5833 5834 5834 5835 5835 5836 5836 5836 5836 5836 5836 5836 5835 5835 5835 5835 5834 5834 5834 5834 5833 5833 5832 5832 5831
5810 5811 5812 5814 5816 5817 5818 5820 5821 5821 5822 5823 5825 5825 5826 5827 5827 5827 5827 5827 5828 5829 5830 5830 5831 5831 5831 5830 5830 5831 5831 5831 5831 5830 5830 5830 5830 5830 5830 5829 5829 5828 5827 5827
5804 5806 5808 5809 5811 5812 5813 5815 5815 5815 5816 5817 5819 5819 5820 5821 5821 5822 5822 5823 5823 5823 5823 5825 5826 5826 5826 5825 5825 5825 5826 5826 5826 5825 5825 5825 5825 5825 5825 5825 5825 5824 5823 5823
5797 5800 5802 5803 5805 5807 5808 5809 5810 5810 5811 5812 5813 5813 5815 5815 5815 5816 5817 5817 5817 5817 5818 5819 5820 5821 5821 5821 5820 5820 5821 5821 5821 5820 5819 5820 5821 5821 5820 5820 5819 5819 5818 5818
5791 5794 5796 5798 5799 5802 5802 5803 5805 5805 5805 5806 5807 5808 5809 5809 5809 5810 5810 5811 5812 5812 5813 5814 5815 5816 5816 5816 5816 5815 5815 5816 5816 5815 5814 5815 5815 5815 5815 5815 5814 5814 5813 5813
5785 5788 5791 5793 5794 5795 5798 5799 5800 5800 5799 5800 5801 5802 5803 5803 5804 5804 5805 5806 5807 5808 5808 5809 5810 5810 5810 5810 5810 5810 5809 5810 5810 5810 5810 5810 5810 5810 5810 5809 5809 5808 5808 5808
5780 5782 5785 5787 5788 5790 5792 5793 5793 5794 5795 5795 5795 5799 5799 5799 5799 5799 5800 5801 5802 5803 5804 5805 5805 5805 5805 5804 5804 5804 5804 5804 5804 5805 5805 5805 5805 5804 5804 5804 5803 5803 5803 5803
5774 5776 5778 5781 5783 5784 5786 5787 5788 5790 5790 5791 5791 5795 5794 5794 5794 5794 5795 5795 5796 5797 5798 5799 5799 5799 5799 5798 5798 5798 5799 5798 5798 5799 5799 5799 5799 5799 5798 5798 5798 5798 5797 5797
5768 5770 5773 5775 5779 5780 5779 5780 5782 5783 5784 5785 5786 5790 5789 5788 5788 5789 5790 5790 5790 5792 5792 5793 5793 5793 5793 5793 5793 5793 5793 5792 5792 5792 5793 5793 5792 5792 5792 5792 5792 5792 5791 5791
5762 5764 5767 5769 5771 5773 5773 5775 5776 5777 5778 5779 5780 5782 5783 5782 5782 5783 5784 5785 5785 5786 5786 5786 5787 5787 5787 5787 5787 5787 5787 5787 5787 5787 5786 5786 5786 5786 5786 5786 5786 5786 5785 5785
5756 5758 5759 5762 5764 5766 5767 5769 5770 5771 5772 5773 5774 5775 5777 5777 5777 5778 5779 5780 5780 5780 5780 5780 5781 5781 5781 5781 5781 5781 5781 5780 5780 5780 5780 5780 5780 5779 5779 5779 5779 5779 5779 5779
5749 5751 5753 5755 5757 5759 5760 5762 5764 5765 5766 5767 5768 5770 5771 5772 5772 5773 5773 5774 5775 5775 5775 5775 5775 5775 5775 5775 5775 5775 5775 5775 5774 5774 5774 5773 5773 5773 5773 5773 5773 5773 5773 5772
5743 5744 5746 5748 5750 5751 5753 5756 5757 5758 5759 5761 5762 5764 5764 5765 5766 5766 5767 5768 5769 5769 5769 5770 5769 5769 5769 5769 5769 5769 5769 5769 5768 5768 5768 5767 5767 5767 5767 5767 5767 5767 5767 5766
5736 5738 5739 5741 5744 5744 5749 5749 5750 5751 5752 5754 5755 5757 5758 5759 5759 5759 5761 5762 5762 5763 5763 5763 5763 5763 5763 5763 5763 5763 5762 5763 5763 5763 5762 5762 5762 5762 5762 5762 5761 5761 5760 5760
5729 5731 5732 5734 5735 5737 5740 5741 5742 5744 5745 5747 5748 5749 5750 5751 5752 5754 5755 5755 5756 5756 5757 5757 5758 5757 5757 5756 5756 5757 5757 5757 5757 5757 5757 5757 5756 5756 5756 5756 5755 5755 5754 5753
5722 5723 5725 5726 5728 5730 5734 5735 5736 5738 5739 5741 5741 5742 5743 5745 5746 5747 5748 5748 5749 5749 5750 5751 5751 5751 5751 5751 5751 5751 5750 5750 5751 5751 5751 5751 5750 5750 5750 5749 5749 5748 5748 5747
5716 5717 5718 5719 5720 5723 5726 5728 5729 5732 5734 5735 5735 5736 5737 5738 5739 5740 5741 5741 5742 5743 5743 5745 5745 5745 5745 5745 5745 5745 5745 5745 5745 5745 5745 5745 5745 5744 5744 5743 5743 5742 5741 5741
5708 5709 5711 5713 5714 5719 5719 5721 5722 5724 5726 5727 5728 5728 5730 5731 5732 5733 5734 5735 5735 5736 5737 5738 5738 5739 5739 5740 5739 5739 5740 5740 5739 5739 5739 5739 5739 5738 5738 5737 5737 5736 5735 5734
5701 5703 5705 5707 5710 5711 5712 5713 5715 5716 5718 5719 5720 5721 5723 5724 5725 5726 5727 5728 5729 5730 5730 5731 5732 5733 5733 5734 5734 5734 5734 5733 5733 5733 5734 5734 5733 5732 5732 5731 5731 5730 5729 5728
5695 5697 5698 5699 5701 5703 5705 5706 5708 5709 5711 5712 5713 5714 5714 5715 5717 5718 5720 5721 5722 5723 5724 5725 5726 5726 5727 5727 5727 5728 5728 5728 5728 5728 5728 5728 5727 5727 5726 5726 5725 5724 5723 5723
5690 5691 5692 5693 5695 5697 5698 5699 5701 5702 5704 5705 5706 5706 5707 5708 5709 5710 5712 5713 5715 5716 5717 5718 5719 5720 5720 5721 5722 5722 5722 5722 5722 5722 5722 5722 5722 5721 5721 5720 5720 5719 5718 5717
5683 5685 5686 5687 5689 5690 5691 5693 5694 5696 5697 5698 5698 5699 5700 5701 5701 5702 5703 5705 5708 5709 5710 5712 5713 5713 5714 5715 5716 5716 5716 5716 5716 5716 5716 5716 5716 5716 5715 5715 5714 5713 5713 5712